Location: Unspecified
(47.9110°N, 14.3980°E)
Time: 10:10:39
(UTC+00:00)

ERBS - Pass Details

Date: 06 August 2020
Orbit: 412 x 420 km, 57.0° (Epoch: 21 September)

Event Time Altitude Azimuth Distance (km) Brightness Sun altitude
Rises 20:33:12 0° 261° (W) 2,351 6.5 -17.0°
Reaches altitude 10° 20:35:27 10° 273° (W) 1,489 5.6 -17.2°
Maximum altitude 20:38:26 30° 337° (NNW) 779 4.3 -17.5°
Drops below altitude 10° 20:41:25 10° 40° (NE) 1,491 5.2 -17.8°
Sets 20:43:40 0° 52° (NE) 2,355 6.1 -18.1°
